| time (UTC) | temp C | wind direction | speed KPH | gust KPH | rain 1hr cm | rain 24hr cm | rain mn cm | humidity % | barometer mb |
| 20260510203438 | 16 | 336 | 0.0 | 0.0 | 0.00 | 0.61 | 0.61 | 95 | 1011.0 |
| 20260510202938 | 16 | 309 | 0.0 | 0.0 | 0.00 | 0.61 | 0.61 | 95 | 1011.2 |
| 20260510202434 | 16 | 177 | 0.0 | 0.0 | 0.00 | 0.61 | 0.61 | 97 | 1011.0 |
| 20260510201931 | 15 | 351 | 0.0 | 0.0 | 0.00 | 0.61 | 0.61 | 99 | 1011.2 |
| 20260510201428 | 15 | 348 | 0.0 | 0.0 | 0.00 | 0.61 | 0.61 | 99 | 1010.9 |
| 20260510200924 | 15 | 354 | 0.0 | 0.0 | 0.00 | 0.61 | 0.61 | 99 | 1011.1 |
| 20260510200425 | 15 | 20 | 0.0 | 0.0 | 0.00 | 0.61 | 0.61 | 99 | 1011.2 |
| 20260510195918 | 15 | 337 | 0.0 | 0.0 | 0.18 | 0.61 | 0.61 | 99 | 1011.2 |
| 20260510195415 | 15 | 327 | 0.0 | 0.0 | 0.48 | 0.61 | 0.61 | 99 | 1011.4 |
| 20260510194910 | 15 | 349 | 0.0 | 0.0 | 1.68 | 0.58 | 0.58 | 99 | 1011.1 |
| 20260510194407 | 15 | 345 | 0.0 | 1.6 | 1.50 | 0.53 | 0.53 | 99 | 1011.3 |
| 20260510193903 | 15 | 37 | 0.0 | 0.0 | 0.13 | 0.30 | 0.30 | 98 | 1011.7 |
| 20260510193357 | 15 | 344 | 0.0 | 0.0 | 0.00 | 0.28 | 0.28 | 97 | 1011.1 |
| 20260510192853 | 15 | 345 | 0.0 | 0.0 | 0.00 | 0.28 | 0.28 | 96 | 1011.2 |
| 20260510192349 | 15 | 329 | 0.0 | 0.0 | 0.18 | 0.28 | 0.28 | 95 | 1011.0 |
| 20260510191845 | 15 | 301 | 0.0 | 0.0 | 0.36 | 0.28 | 0.28 | 95 | 1011.1 |
| 20260510191341 | 15 | 262 | 0.0 | 0.0 | 0.79 | 0.25 | 0.25 | 93 | 1011.3 |
| 20260510190839 | 15 | 259 | 0.0 | 0.0 | 0.89 | 0.23 | 0.23 | 93 | 1011.5 |
| 20260510190336 | 16 | 283 | 0.0 | 1.6 | 0.71 | 0.13 | 0.13 | 92 | 1011.3 |
| 20260510185831 | 17 | 249 | 0.0 | 1.6 | 0.43 | 0.08 | 0.08 | 88 | 1011.3 |
| 20260510185330 | 18 | 225 | 3.2 | 3.2 | 0.00 | 0.00 | 0.00 | 82 | 1011.1 |
| 20260510184822 | 19 | 272 | 0.0 | 0.0 | 0.00 | 0.00 | 0.00 | 78 | 1011.3 |
| 20260510184319 | 19 | 347 | 0.0 | 0.0 | 0.00 | 0.00 | 0.00 | 75 | 1010.9 |
| 20260510183819 | 20 | 342 | 0.0 | 1.6 | 0.00 | 0.00 | 0.00 | 74 | 1010.8 |
| 20260510183314 | 20 | 325 | 0.0 | 0.0 | 0.00 | 0.00 | 0.00 | 69 | 1010.8 |
| 20260510182810 | 20 | 350 | 0.0 | 0.0 | 0.00 | 0.00 | 0.00 | 70 | 1010.7 |
| 20260510182307 | 20 | 352 | 1.6 | 1.6 | 0.00 | 0.00 | 0.00 | 69 | 1010.6 |
| 20260510181803 | 20 | 337 | 1.6 | 3.2 | 0.00 | 0.00 | 0.00 | 69 | 1010.8 |
| 20260510181300 | 20 | 24 | 0.0 | 1.6 | 0.00 | 0.00 | 0.00 | 69 | 1010.9 |
| 20260510180756 | 20 | 342 | 1.6 | 1.6 | 0.00 | 0.00 | 0.00 | 69 | 1010.9 |
| 20260510180254 | 20 | 288 | 0.0 | 0.0 | 0.00 | 0.00 | 0.00 | 69 | 1010.8 |
| 20260510175750 | 20 | 78 | 1.6 | 1.6 | 0.00 | 0.00 | 0.00 | 71 | 1010.9 |
| 20260510175246 | 21 | 16 | 0.0 | 1.6 | 0.00 | 0.00 | 0.00 | 68 | 1010.7 |
| 20260510174743 | 21 | 349 | 1.6 | 3.2 | 0.00 | 0.00 | 0.00 | 69 | 1010.9 |
| 20260510174240 | 21 | 203 | 1.6 | 1.6 | 0.00 | 0.00 | 0.00 | 68 | 1010.7 |
| 20260510173736 | 20 | 4 | 1.6 | 1.6 | 0.00 | 0.00 | 0.00 | 72 | 1010.5 |
| 20260510173232 | 20 | 343 | 1.6 | 1.6 | 0.00 | 0.00 | 0.00 | 71 | 1010.6 |
| 20260510172727 | 20 | 357 | 0.0 | 0.0 | 0.00 | 0.00 | 0.00 | 70 | 1010.8 |
| 20260510172218 | 20 | 248 | 0.0 | 1.6 | 0.00 | 0.00 | 0.00 | 69 | 1010.9 |
| 20260510171715 | 20 | 305 | 0.0 | 1.6 | 0.00 | 0.00 | 0.00 | 67 | 1010.9 |
| 20260510171213 | 21 | 250 | 4.8 | 9.7 | 0.00 | 0.00 | 0.00 | 68 | 1010.9 |
| 20260510170709 | 20 | 358 | 4.8 | 4.8 | 0.00 | 0.00 | 0.00 | 69 | 1010.9 |
| 20260510170206 | 20 | 321 | 0.0 | 1.6 | 0.00 | 0.00 | 0.00 | 70 | 1011.1 |
| 20260510165702 | 20 | 4 | 0.0 | 1.6 | 0.00 | 0.00 | 0.00 | 72 | 1011.1 |
| 20260510165158 | 20 | 340 | 0.0 | 0.0 | 0.00 | 0.00 | 0.00 | 70 | 1011.0 |
| 20260510164655 | 20 | 252 | 0.0 | 1.6 | 0.00 | 0.00 | 0.00 | 68 | 1011.0 |
| 20260510164152 | 20 | 210 | 1.6 | 3.2 | 0.00 | 0.00 | 0.00 | 69 | 1010.8 |
| 20260510163647 | 20 | 341 | 1.6 | 1.6 | 0.00 | 0.00 | 0.00 | 69 | 1011.0 |
| 20260510163143 | 20 | 40 | 1.6 | 1.6 | 0.00 | 0.00 | 0.00 | 72 | 1010.8 |
| 20260510162637 | 19 | 287 | 0.0 | 1.6 | 0.00 | 0.00 | 0.00 | 73 | 1011.0 |
| 20260510162134 | 20 | 346 | 1.6 | 3.2 | 0.00 | 0.00 | 0.00 | 72 | 1011.3 |
| 20260510161630 | 20 | 254 | 0.0 | 1.6 | 0.00 | 0.00 | 0.00 | 73 | 1011.1 |
| 20260510161127 | 19 | 3 | 1.6 | 1.6 | 0.00 | 0.00 | 0.00 | 72 | 1011.4 |
| 20260510160624 | 19 | 6 | 0.0 | 0.0 | 0.00 | 0.00 | 0.00 | 73 | 1011.3 |
| 20260510160124 | 20 | 353 | 0.0 | 1.6 | 0.00 | 0.00 | 0.00 | 72 | 1011.5 |
| 20260510155621 | 19 | 350 | 0.0 | 0.0 | 0.00 | 0.00 | 0.00 | 76 | 1011.5 |
| 20260510155117 | 19 | 192 | 3.2 | 3.2 | 0.00 | 0.00 | 0.00 | 73 | 1011.3 |
| 20260510154612 | 18 | 230 | 1.6 | 1.6 | 0.00 | 0.00 | 0.00 | 74 | 1011.4 |
| 20260510154108 | 19 | 328 | 0.0 | 1.6 | 0.00 | 0.00 | 0.00 | 76 | 1011.3 |
| 20260510153603 | 19 | 223 | 0.0 | 1.6 | 0.00 | 0.00 | 0.00 | 74 | 1011.2 |
| 20260510153100 | 19 | 355 | 0.0 | 1.6 | 0.00 | 0.00 | 0.00 | 74 | 1011.2 |
| 20260510152557 | 18 | 234 | 1.6 | 3.2 | 0.00 | 0.00 | 0.00 | 75 | 1011.1 |
| 20260510152053 | 18 | 285 | 0.0 | 1.6 | 0.00 | 0.00 | 0.00 | 77 | 1011.0 |
| 20260510151550 | 18 | 5 | 0.0 | 0.0 | 0.00 | 0.00 | 0.00 | 79 | 1011.1 |
| 20260510151048 | 18 | 329 | 0.0 | 0.0 | 0.00 | 0.00 | 0.00 | 78 | 1011.2 |
| 20260510150548 | 18 | 343 | 0.0 | 0.0 | 0.00 | 0.00 | 0.00 | 78 | 1011.2 |
| 20260510150044 | 18 | 10 | 0.0 | 0.0 | 0.00 | 0.00 | 0.00 | 77 | 1011.2 |
| 20260510145541 | 18 | 186 | 4.8 | 8.0 | 0.00 | 0.00 | 0.00 | 77 | 1011.1 |
| 20260510145037 | 18 | 359 | 0.0 | 0.0 | 0.00 | 0.00 | 0.00 | 79 | 1011.0 |
| 20260510144534 | 18 | 194 | 1.6 | 1.6 | 0.00 | 0.00 | 0.00 | 79 | 1011.1 |
| 20260510144030 | 17 | 269 | 1.6 | 1.6 | 0.00 | 0.00 | 0.00 | 80 | 1011.2 |
| 20260510143525 | 18 | 179 | 4.8 | 9.7 | 0.00 | 0.00 | 0.00 | 80 | 1011.1 |
| 20260510143022 | 18 | 217 | 3.2 | 3.2 | 0.00 | 0.00 | 0.00 | 80 | 1011.0 |
| 20260510142519 | 18 | 257 | 0.0 | 0.0 | 0.00 | 0.00 | 0.00 | 80 | 1011.0 |
| 20260510142015 | 17 | 339 | 0.0 | 0.0 | 0.00 | 0.00 | 0.00 | 82 | 1011.1 |
| 20260510141512 | 17 | 319 | 0.0 | 0.0 | 0.00 | 0.00 | 0.00 | 84 | 1011.1 |
| 20260510141010 | 17 | 334 | 0.0 | 0.0 | 0.00 | 0.00 | 0.00 | 84 | 1011.1 |
| 20260510140506 | 17 | 257 | 0.0 | 0.0 | 0.00 | 0.00 | 0.00 | 85 | 1011.1 |
| 20260510140000 | 17 | 137 | 0.0 | 0.0 | 0.00 | 0.00 | 0.00 | 84 | 1011.1 |
| 20260510135455 | 16 | 288 | 0.0 | 0.0 | 0.00 | 0.00 | 0.00 | 86 | 1011.3 |
| 20260510134953 | 16 | 340 | 0.0 | 0.0 | 0.00 | 0.00 | 0.00 | 88 | 1011.0 |
| 20260510134450 | 16 | 187 | 0.0 | 0.0 | 0.00 | 0.00 | 0.00 | 87 | 1011.3 |
| 20260510133946 | 15 | 324 | 0.0 | 0.0 | 0.00 | 0.00 | 0.00 | 90 | 1011.4 |
| 20260510133442 | 15 | 198 | 0.0 | 0.0 | 0.00 | 0.00 | 0.00 | 91 | 1011.4 |
| 20260510132938 | 14 | 166 | 0.0 | 0.0 | 0.00 | 0.00 | 0.00 | 94 | 1011.5 |
| 20260510132435 | 13 | 350 | 0.0 | 0.0 | 0.00 | 0.00 | 0.00 | 99 | 1011.4 |
| 20260510131932 | 13 | 355 | 0.0 | 0.0 | 0.00 | 0.00 | 0.00 | 99 | 1011.5 |
| 20260510131430 | 13 | 341 | 0.0 | 0.0 | 0.00 | 0.00 | 0.00 | 99 | 1011.3 |
| 20260510130926 | 12 | 313 | 0.0 | 0.0 | 0.00 | 0.00 | 0.00 | 99 | 1011.2 |
| 20260510130423 | 12 | 331 | 0.0 | 0.0 | 0.00 | 0.00 | 0.00 | 99 | 1011.3 |
| 20260510125921 | 12 | 269 | 0.0 | 0.0 | 0.00 | 0.00 | 0.00 | 99 | 1011.3 |
| 20260510125416 | 12 | 286 | 0.0 | 1.6 | 0.00 | 0.00 | 0.00 | 99 | 1011.5 |
| 20260510124914 | 12 | 355 | 0.0 | 0.0 | 0.00 | 0.00 | 0.00 | 99 | 1011.1 |
| 20260510124410 | 12 | 346 | 0.0 | 0.0 | 0.00 | 0.00 | 0.00 | 99 | 1011.2 |
| 20260510123906 | 11 | 348 | 0.0 | 0.0 | 0.00 | 0.00 | 0.00 | 99 | 1011.1 |
| 20260510123402 | 11 | 340 | 0.0 | 0.0 | 0.00 | 0.00 | 0.00 | 99 | 1010.8 |
| 20260510122858 | 11 | 349 | 0.0 | 0.0 | 0.00 | 0.00 | 0.00 | 99 | 1010.9 |
| 20260510122354 | 11 | 349 | 0.0 | 0.0 | 0.00 | 0.00 | 0.00 | 99 | 1010.8 |
| 20260510121850 | 11 | 352 | 0.0 | 0.0 | 0.00 | 0.00 | 0.00 | 99 | 1011.0 |
| 20260510121348 | 11 | 354 | 0.0 | 0.0 | 0.00 | 0.00 | 0.00 | 99 | 1010.8 |
| 20260510120845 | 11 | 348 | 0.0 | 0.0 | 0.00 | 0.00 | 0.00 | 99 | 1010.8 |
| 20260510120343 | 11 | 355 | 0.0 | 0.0 | 0.00 | 0.00 | 0.00 | 99 | 1011.0 |
| 20260510115837 | 11 | 350 | 0.0 | 0.0 | 0.00 | 0.00 | 0.00 | 99 | 1011.1 |
| 20260510115335 | 11 | 342 | 0.0 | 0.0 | 0.00 | 0.00 | 0.00 | 99 | 1011.0 |
| 20260510114831 | 11 | 353 | 0.0 | 0.0 | 0.00 | 0.00 | 0.00 | 99 | 1010.7 |
| 20260510114328 | 11 | 353 | 0.0 | 0.0 | 0.00 | 0.00 | 0.00 | 99 | 1010.6 |
| 20260510113828 | 11 | 353 | 0.0 | 0.0 | 0.00 | 0.00 | 0.00 | 99 | 1010.7 |
| 20260510113325 | 11 | 353 | 0.0 | 0.0 | 0.00 | 0.00 | 0.00 | 99 | 1010.7 |
| 20260510112822 | 11 | 0 | 0.0 | 0.0 | 0.00 | 0.00 | 0.00 | 99 | 1010.7 |
| 20260510112319 | 11 | 356 | 0.0 | 0.0 | 0.00 | 0.00 | 0.00 | 99 | 1010.6 |
| 20260510111815 | 10 | 354 | 0.0 | 0.0 | 0.00 | 0.00 | 0.00 | 99 | 1010.5 |
| 20260510111311 | 10 | 354 | 0.0 | 0.0 | 0.00 | 0.00 | 0.00 | 99 | 1010.5 |
| 20260510110811 | 10 | 354 | 0.0 | 0.0 | 0.00 | 0.00 | 0.00 | 99 | 1010.3 |
| 20260510110309 | 10 | 354 | 0.0 | 0.0 | 0.00 | 0.00 | 0.00 | 99 | 1010.2 |
| 20260510105804 | 10 | 355 | 0.0 | 0.0 | 0.00 | 0.00 | 0.00 | 99 | 1010.2 |
| 20260510105259 | 10 | 356 | 0.0 | 0.0 | 0.00 | 0.00 | 0.00 | 99 | 1010.2 |
| 20260510104756 | 10 | 357 | 0.0 | 0.0 | 0.00 | 0.00 | 0.00 | 99 | 1010.0 |
| 20260510104253 | 10 | 0 | 0.0 | 0.0 | 0.00 | 0.00 | 0.00 | 99 | 1010.1 |
| 20260510103749 | 10 | 356 | 0.0 | 0.0 | 0.00 | 0.00 | 0.00 | 99 | 1010.0 |
| 20260510103246 | 10 | 356 | 0.0 | 0.0 | 0.00 | 0.00 | 0.00 | 99 | 1010.2 |
| 20260510102746 | 10 | 44 | 0.0 | 0.0 | 0.00 | 0.00 | 0.00 | 99 | 1010.3 |
| 20260510102242 | 10 | 355 | 0.0 | 0.0 | 0.00 | 0.00 | 0.00 | 99 | 1010.2 |
| 20260510101740 | 10 | 359 | 0.0 | 0.0 | 0.00 | 0.00 | 0.00 | 99 | 1010.3 |
| 20260510101238 | 10 | 8 | 0.0 | 0.0 | 0.00 | 0.00 | 0.00 | 99 | 1009.8 |
| 20260510100733 | 10 | 35 | 0.0 | 0.0 | 0.00 | 0.00 | 0.00 | 99 | 1009.7 |
| 20260510100232 | 10 | 349 | 0.0 | 0.0 | 0.00 | 0.00 | 0.00 | 99 | 1010.0 |
| 20260510095727 | 10 | 348 | 0.0 | 0.0 | 0.00 | 0.00 | 0.00 | 99 | 1009.9 |
| 20260510095222 | 10 | 350 | 0.0 | 0.0 | 0.00 | 0.00 | 0.00 | 99 | 1010.0 |
| 20260510094721 | 10 | 348 | 0.0 | 0.0 | 0.00 | 0.00 | 0.00 | 99 | 1009.9 |
| 20260510094217 | 10 | 352 | 0.0 | 0.0 | 0.00 | 0.00 | 0.00 | 99 | 1009.6 |
| 20260510093713 | 10 | 351 | 0.0 | 0.0 | 0.00 | 0.00 | 0.00 | 99 | 1009.7 |
| 20260510093210 | 10 | 350 | 0.0 | 0.0 | 0.00 | 0.00 | 0.00 | 99 | 1009.8 |
| 20260510092707 | 10 | 350 | 0.0 | 0.0 | 0.00 | 0.00 | 0.00 | 99 | 1009.6 |
| 20260510092202 | 10 | 31 | 0.0 | 0.0 | 0.00 | 0.00 | 0.00 | 99 | 1009.5 |
| 20260510091658 | 10 | 194 | 0.0 | 0.0 | 0.00 | 0.00 | 0.00 | 99 | 1009.5 |
| 20260510091154 | 10 | 98 | 0.0 | 0.0 | 0.00 | 0.00 | 0.00 | 99 | 1009.4 |
| 20260510090652 | 10 | 17 | 0.0 | 0.0 | 0.00 | 0.00 | 0.00 | 99 | 1009.4 |
| 20260510090148 | 9 | 105 | 0.0 | 0.0 | 0.00 | 0.00 | 0.00 | 99 | 1009.6 |
| 20260510085643 | 9 | 57 | 0.0 | 0.0 | 0.00 | 0.00 | 0.00 | 99 | 1009.5 |
| 20260510085138 | 9 | 68 | 0.0 | 0.0 | 0.00 | 0.00 | 0.00 | 99 | 1009.6 |
| 20260510084635 | 9 | 69 | 0.0 | 0.0 | 0.00 | 0.00 | 0.00 | 99 | 1009.7 |
| 20260510084132 | 9 | 103 | 0.0 | 0.0 | 0.00 | 0.00 | 0.00 | 99 | 1009.7 |
| 20260510083628 | 9 | 55 | 0.0 | 0.0 | 0.00 | 0.00 | 0.00 | 99 | 1009.8 |
| 20260510083125 | 9 | 94 | 0.0 | 0.0 | 0.00 | 0.00 | 0.00 | 99 | 1009.6 |
| 20260510082621 | 9 | 89 | 0.0 | 0.0 | 0.00 | 0.00 | 0.00 | 99 | 1009.6 |
| 20260510082117 | 9 | 2 | 0.0 | 0.0 | 0.00 | 0.00 | 0.00 | 99 | 1010.1 |
| 20260510081612 | 9 | 4 | 0.0 | 0.0 | 0.00 | 0.00 | 0.00 | 99 | 1010.1 |
| 20260510081108 | 9 | 1 | 0.0 | 0.0 | 0.00 | 0.00 | 0.00 | 99 | 1010.2 |
| 20260510080602 | 10 | 6 | 0.0 | 0.0 | 0.00 | 0.00 | 0.00 | 99 | 1010.3 |
| 20260510080059 | 10 | 79 | 0.0 | 0.0 | 0.00 | 0.00 | 0.00 | 99 | 1010.1 |
| 20260510075556 | 10 | 32 | 0.0 | 0.0 | 0.00 | 0.00 | 0.00 | 99 | 1010.2 |
| 20260510075053 | 10 | 15 | 0.0 | 0.0 | 0.00 | 0.00 | 0.00 | 99 | 1010.2 |
| 20260510074550 | 10 | 6 | 0.0 | 0.0 | 0.00 | 0.00 | 0.00 | 99 | 1010.4 |
| 20260510074045 | 9 | 5 | 0.0 | 0.0 | 0.00 | 0.00 | 0.00 | 99 | 1010.5 |
| 20260510073542 | 9 | 11 | 0.0 | 0.0 | 0.00 | 0.00 | 0.00 | 99 | 1010.6 |
| 20260510073039 | 9 | 13 | 0.0 | 0.0 | 0.00 | 0.00 | 0.00 | 99 | 1010.5 |
| 20260510072536 | 9 | 359 | 0.0 | 0.0 | 0.00 | 0.00 | 0.00 | 99 | 1010.5 |
| 20260510072031 | 8 | 339 | 0.0 | 0.0 | 0.00 | 0.00 | 0.00 | 99 | 1010.6 |
| 20260510071527 | 8 | 339 | 0.0 | 0.0 | 0.00 | 0.00 | 0.00 | 99 | 1010.5 |
| 20260510071026 | 8 | 348 | 0.0 | 0.0 | 0.00 | 0.00 | 0.00 | 99 | 1010.4 |
| 20260510070522 | 8 | 347 | 0.0 | 0.0 | 0.00 | 0.00 | 0.00 | 99 | 1010.2 |
| 20260510070019 | 8 | 340 | 0.0 | 0.0 | 0.00 | 0.00 | 0.00 | 99 | 1010.4 |
| 20260510065515 | 8 | 43 | 0.0 | 0.0 | 0.00 | 0.00 | 0.00 | 99 | 1010.0 |
| 20260510065011 | 8 | 43 | 0.0 | 0.0 | 0.00 | 0.00 | 0.00 | 99 | 1010.0 |
| 20260510064508 | 8 | 43 | 0.0 | 0.0 | 0.00 | 0.00 | 0.00 | 99 | 1009.8 |
| 20260510064005 | 8 | 43 | 0.0 | 0.0 | 0.00 | 0.00 | 0.00 | 99 | 1009.8 |
| 20260510063502 | 8 | 43 | 0.0 | 0.0 | 0.00 | 0.00 | 0.00 | 99 | 1009.9 |
| 20260510062959 | 8 | 43 | 0.0 | 0.0 | 0.00 | 0.00 | 0.00 | 99 | 1010.1 |
| 20260510062455 | 8 | 43 | 0.0 | 0.0 | 0.00 | 0.00 | 0.00 | 99 | 1009.9 |
| 20260510061949 | 7 | 43 | 0.0 | 0.0 | 0.00 | 0.00 | 0.00 | 99 | 1009.9 |
| 20260510061447 | 7 | 43 | 0.0 | 0.0 | 0.00 | 0.00 | 0.00 | 99 | 1010.0 |
| 20260510060943 | 7 | 43 | 0.0 | 0.0 | 0.00 | 0.00 | 0.00 | 99 | 1010.0 |
| 20260510060440 | 7 | 44 | 0.0 | 0.0 | 0.00 | 0.00 | 0.00 | 99 | 1010.0 |
| 20260510055936 | 7 | 44 | 0.0 | 0.0 | 0.00 | 0.00 | 0.00 | 99 | 1010.1 |
| 20260510055432 | 7 | 45 | 0.0 | 0.0 | 0.00 | 0.00 | 0.00 | 99 | 1010.1 |
| 20260510054930 | 7 | 45 | 0.0 | 0.0 | 0.00 | 0.00 | 0.00 | 99 | 1010.0 |
| 20260510054425 | 7 | 45 | 0.0 | 0.0 | 0.00 | 0.00 | 0.00 | 99 | 1010.0 |
| 20260510053921 | 7 | 45 | 0.0 | 0.0 | 0.00 | 0.00 | 0.00 | 99 | 1009.6 |
| 20260510053416 | 7 | 46 | 0.0 | 0.0 | 0.00 | 0.00 | 0.00 | 99 | 1009.7 |
| 20260510052913 | 7 | 46 | 0.0 | 0.0 | 0.00 | 0.00 | 0.00 | 99 | 1009.7 |
| 20260510052409 | 7 | 46 | 0.0 | 0.0 | 0.00 | 0.00 | 0.00 | 99 | 1009.5 |
| 20260510051905 | 7 | 46 | 0.0 | 0.0 | 0.00 | 0.00 | 0.00 | 99 | 1009.6 |
| 20260510051402 | 7 | 46 | 0.0 | 0.0 | 0.00 | 0.00 | 0.00 | 99 | 1009.8 |
| 20260510050858 | 8 | 46 | 0.0 | 0.0 | 0.00 | 0.00 | 0.00 | 99 | 1009.7 |
| 20260510050355 | 8 | 47 | 0.0 | 0.0 | 0.00 | 0.00 | 0.00 | 99 | 1009.7 |
| 20260510045852 | 7 | 80 | 0.0 | 0.0 | 0.00 | 0.00 | 0.00 | 99 | 1009.9 |
| 20260510045348 | 7 | 80 | 0.0 | 0.0 | 0.00 | 0.00 | 0.00 | 99 | 1009.5 |
| 20260510044846 | 8 | 80 | 0.0 | 0.0 | 0.00 | 0.00 | 0.00 | 99 | 1009.5 |
| 20260510043306 | 8 | 80 | 0.0 | 0.0 | 0.00 | 0.00 | 0.00 | 99 | 1009.7 |
| 20260510042804 | 8 | 80 | 0.0 | 0.0 | 0.00 | 0.00 | 0.00 | 99 | 1009.7 |
| 20260510042300 | 8 | 80 | 0.0 | 0.0 | 0.00 | 0.00 | 0.00 | 99 | 1009.6 |
| 20260510041756 | 8 | 81 | 0.0 | 0.0 | 0.00 | 0.00 | 0.00 | 99 | 1009.7 |
| 20260510041254 | 8 | 81 | 0.0 | 0.0 | 0.00 | 0.00 | 0.00 | 99 | 1009.5 |
| 20260510040751 | 8 | 81 | 0.0 | 0.0 | 0.00 | 0.00 | 0.00 | 99 | 1009.5 |
| 20260510040248 | 8 | 81 | 0.0 | 0.0 | 0.00 | 0.00 | 0.00 | 99 | 1009.8 |
| 20260510035743 | 8 | 81 | 0.0 | 0.0 | 0.00 | 0.64 | 0.64 | 99 | 1009.6 |
| 20260510035239 | 8 | 81 | 0.0 | 0.0 | 0.00 | 0.64 | 0.64 | 99 | 1009.5 |
| 20260510034735 | 8 | 81 | 0.0 | 0.0 | 0.00 | 0.64 | 0.64 | 99 | 1009.5 |
| 20260510034233 | 8 | 81 | 0.0 | 0.0 | 0.00 | 0.64 | 0.64 | 99 | 1009.7 |
| 20260510033729 | 9 | 81 | 0.0 | 0.0 | 0.00 | 0.64 | 0.64 | 99 | 1009.6 |
| 20260510033227 | 9 | 81 | 0.0 | 0.0 | 0.00 | 0.64 | 0.64 | 99 | 1009.5 |
| 20260510032723 | 10 | 81 | 0.0 | 0.0 | 0.00 | 0.64 | 0.64 | 99 | 1009.5 |
| 20260510032218 | 10 | 81 | 0.0 | 0.0 | 0.00 | 0.64 | 0.64 | 99 | 1009.6 |
| 20260510031714 | 10 | 81 | 0.0 | 0.0 | 0.00 | 0.64 | 0.64 | 99 | 1009.4 |
| 20260510031210 | 10 | 81 | 0.0 | 0.0 | 0.00 | 0.64 | 0.64 | 99 | 1009.5 |
| 20260510030709 | 10 | 81 | 0.0 | 0.0 | 0.00 | 0.64 | 0.64 | 99 | 1009.7 |
| 20260510030208 | 10 | 81 | 0.0 | 0.0 | 0.00 | 0.64 | 0.64 | 99 | 1009.9 |
| 20260510025705 | 10 | 81 | 0.0 | 0.0 | 0.00 | 0.64 | 0.64 | 99 | 1009.9 |
| 20260510025202 | 10 | 82 | 0.0 | 0.0 | 0.00 | 0.64 | 0.64 | 99 | 1009.8 |
| 20260510024659 | 10 | 82 | 0.0 | 0.0 | 0.00 | 0.64 | 0.64 | 99 | 1009.9 |
| 20260510024155 | 10 | 83 | 0.0 | 0.0 | 0.00 | 0.64 | 0.64 | 99 | 1009.8 |
| 20260510023651 | 10 | 85 | 0.0 | 0.0 | 0.00 | 0.64 | 0.64 | 99 | 1009.6 |
| 20260510023148 | 10 | 87 | 0.0 | 0.0 | 0.00 | 0.64 | 0.64 | 99 | 1009.6 |
| 20260510022643 | 10 | 88 | 0.0 | 0.0 | 0.00 | 0.64 | 0.64 | 99 | 1009.6 |
| 20260510022138 | 10 | 98 | 0.0 | 0.0 | 0.00 | 0.64 | 0.64 | 99 | 1009.6 |
| 20260510021634 | 10 | 85 | 0.0 | 0.0 | 0.00 | 0.64 | 0.64 | 99 | 1009.8 |
| 20260510021131 | 10 | 85 | 0.0 | 0.0 | 0.00 | 0.64 | 0.64 | 99 | 1009.5 |
| 20260510020626 | 10 | 85 | 0.0 | 0.0 | 0.00 | 0.64 | 0.64 | 99 | 1009.6 |
| 20260510020121 | 10 | 85 | 0.0 | 0.0 | 0.00 | 0.64 | 0.64 | 99 | 1009.4 |
| 20260510015618 | 10 | 85 | 0.0 | 0.0 | 0.00 | 0.64 | 0.64 | 99 | 1009.7 |
| 20260510015114 | 10 | 86 | 0.0 | 0.0 | 0.00 | 0.64 | 0.64 | 99 | 1009.5 |
| 20260510014609 | 10 | 85 | 0.0 | 0.0 | 0.00 | 0.64 | 0.64 | 99 | 1009.6 |
| 20260510014108 | 10 | 85 | 0.0 | 0.0 | 0.00 | 0.64 | 0.64 | 99 | 1009.6 |
| 20260510013602 | 10 | 85 | 0.0 | 0.0 | 0.00 | 0.64 | 0.64 | 99 | 1009.5 |
| 20260510013058 | 10 | 86 | 0.0 | 0.0 | 0.00 | 0.64 | 0.64 | 99 | 1009.4 |
| 20260510012557 | 10 | 87 | 0.0 | 0.0 | 0.00 | 0.64 | 0.64 | 99 | 1009.4 |
| 20260510012054 | 10 | 87 | 0.0 | 0.0 | 0.00 | 0.64 | 0.64 | 99 | 1009.1 |
| 20260510011553 | 10 | 95 | 0.0 | 0.0 | 0.00 | 0.64 | 0.64 | 99 | 1009.1 |
| 20260510011050 | 10 | 88 | 0.0 | 0.0 | 0.00 | 0.64 | 0.64 | 99 | 1009.2 |
| 20260510010546 | 10 | 88 | 0.0 | 0.0 | 0.00 | 0.64 | 0.64 | 99 | 1009.3 |
| 20260510010044 | 10 | 88 | 0.0 | 0.0 | 0.00 | 0.64 | 0.64 | 99 | 1008.9 |
| 20260510005539 | 10 | 88 | 0.0 | 0.0 | 0.00 | 0.64 | 0.64 | 99 | 1009.2 |
| 20260510005037 | 10 | 88 | 0.0 | 0.0 | 0.00 | 0.64 | 0.64 | 99 | 1009.1 |
| 20260510004534 | 10 | 88 | 0.0 | 0.0 | 0.00 | 0.64 | 0.64 | 99 | 1008.8 |
| 20260510004032 | 10 | 88 | 0.0 | 0.0 | 0.00 | 0.64 | 0.64 | 99 | 1009.0 |
| 20260510003528 | 10 | 88 | 0.0 | 0.0 | 0.00 | 0.64 | 0.64 | 99 | 1008.8 |
| 20260510003024 | 11 | 88 | 0.0 | 0.0 | 0.00 | 0.64 | 0.64 | 99 | 1008.9 |
| 20260510002514 | 11 | 88 | 0.0 | 0.0 | 0.00 | 0.64 | 0.64 | 99 | 1008.7 |
| 20260510002011 | 11 | 88 | 0.0 | 0.0 | 0.00 | 0.64 | 0.64 | 99 | 1008.7 |
| 20260510001509 | 11 | 88 | 0.0 | 0.0 | 0.00 | 0.64 | 0.64 | 99 | 1008.6 |
| 20260510001006 | 11 | 89 | 0.0 | 0.0 | 0.00 | 0.64 | 0.64 | 99 | 1008.5 |
| 20260510000501 | 11 | 33 | 0.0 | 0.0 | 0.00 | 0.64 | 0.64 | 99 | 1008.2 |
| 20260509235958 | 11 | 23 | 0.0 | 0.0 | 0.00 | 0.64 | 0.64 | 99 | 1008.4 |
| 20260509235455 | 11 | 27 | 0.0 | 0.0 | 0.00 | 0.64 | 0.64 | 99 | 1008.3 |
| 20260509234951 | 11 | 82 | 0.0 | 0.0 | 0.00 | 0.64 | 0.64 | 99 | 1008.3 |
| 20260509234448 | 11 | 22 | 0.0 | 0.0 | 0.00 | 0.64 | 0.64 | 99 | 1008.3 |
| 20260509233946 | 12 | 30 | 0.0 | 0.0 | 0.00 | 0.64 | 0.64 | 99 | 1008.5 |
| 20260509233443 | 12 | 12 | 0.0 | 0.0 | 0.00 | 0.64 | 0.64 | 99 | 1008.4 |
| 20260509232939 | 12 | 20 | 0.0 | 0.0 | 0.00 | 0.64 | 0.64 | 99 | 1008.3 |
| 20260509232437 | 12 | 26 | 0.0 | 0.0 | 0.00 | 0.64 | 0.64 | 99 | 1008.4 |
| 20260509231933 | 12 | 9 | 0.0 | 0.0 | 0.00 | 0.64 | 0.64 | 99 | 1008.5 |
| 20260509231430 | 12 | 4 | 0.0 | 0.0 | 0.00 | 0.64 | 0.64 | 99 | 1008.6 |
| 20260509230928 | 12 | 6 | 0.0 | 0.0 | 0.00 | 0.64 | 0.64 | 99 | 1008.4 |
| 20260509230424 | 12 | 13 | 0.0 | 0.0 | 0.00 | 0.64 | 0.64 | 99 | 1008.2 |
| 20260509225920 | 12 | 38 | 0.0 | 0.0 | 0.00 | 0.64 | 0.64 | 99 | 1008.4 |
| 20260509225412 | 12 | 215 | 0.0 | 0.0 | 0.00 | 0.64 | 0.64 | 99 | 1008.3 |
| 20260509224908 | 12 | 55 | 0.0 | 0.0 | 0.00 | 0.64 | 0.64 | 99 | 1008.2 |
| 20260509224403 | 12 | 200 | 0.0 | 0.0 | 0.00 | 0.64 | 0.64 | 99 | 1008.3 |
| 20260509223900 | 12 | 102 | 0.0 | 0.0 | 0.00 | 0.64 | 0.64 | 99 | 1008.2 |
| 20260509223357 | 12 | 151 | 0.0 | 0.0 | 0.00 | 0.64 | 0.64 | 99 | 1008.3 |
| 20260509222854 | 12 | 63 | 0.0 | 0.0 | 0.00 | 0.64 | 0.64 | 99 | 1008.2 |
| 20260509222354 | 12 | 75 | 0.0 | 0.0 | 0.00 | 0.64 | 0.64 | 99 | 1008.3 |
| 20260509221850 | 12 | 62 | 0.0 | 0.0 | 0.00 | 0.64 | 0.64 | 99 | 1008.4 |
| 20260509221348 | 12 | 54 | 0.0 | 0.0 | 0.00 | 0.64 | 0.64 | 99 | 1008.4 |
| 20260509220843 | 12 | 93 | 0.0 | 0.0 | 0.00 | 0.64 | 0.64 | 99 | 1008.5 |
| 20260509220339 | 12 | 21 | 0.0 | 0.0 | 0.00 | 0.64 | 0.64 | 99 | 1008.8 |
| 20260509215835 | 12 | 152 | 0.0 | 0.0 | 0.00 | 0.64 | 0.64 | 99 | 1008.9 |
| 20260509215332 | 12 | 157 | 0.0 | 0.0 | 0.00 | 0.64 | 0.64 | 99 | 1008.8 |
| 20260509214829 | 12 | 135 | 0.0 | 0.0 | 0.00 | 0.64 | 0.64 | 99 | 1008.9 |
| 20260509214326 | 12 | 53 | 0.0 | 0.0 | 0.00 | 0.64 | 0.64 | 99 | 1008.8 |
| 20260509213823 | 12 | 35 | 0.0 | 0.0 | 0.00 | 0.64 | 0.64 | 99 | 1008.8 |
| 20260509213318 | 12 | 72 | 0.0 | 0.0 | 0.00 | 0.64 | 0.64 | 99 | 1008.8 |
| 20260509212816 | 12 | 40 | 0.0 | 0.0 | 0.00 | 0.64 | 0.64 | 99 | 1008.9 |
| 20260509212314 | 12 | 21 | 0.0 | 0.0 | 0.18 | 0.64 | 0.64 | 99 | 1008.9 |
| 20260509211809 | 12 | 84 | 0.0 | 0.0 | 0.18 | 0.64 | 0.64 | 99 | 1009.2 |
| 20260509211305 | 12 | 62 | 0.0 | 0.0 | 0.18 | 0.61 | 0.61 | 99 | 1009.0 |
| 20260509210802 | 12 | 70 | 0.0 | 0.0 | 0.30 | 0.61 | 0.61 | 99 | 1009.1 |
| 20260509210300 | 12 | 27 | 0.0 | 0.0 | 0.30 | 0.58 | 0.58 | 99 | 1008.9 |
| 20260509205759 | 12 | 16 | 0.0 | 0.0 | 0.30 | 0.56 | 0.56 | 99 | 1009.0 |
| 20260509205254 | 12 | 16 | 0.0 | 0.0 | 0.30 | 0.53 | 0.53 | 99 | 1009.3 |
| 20260509204750 | 12 | 44 | 0.0 | 0.0 | 0.30 | 0.51 | 0.51 | 99 | 1009.4 |
| 20260509204247 | 12 | 14 | 0.0 | 0.0 | 0.13 | 0.48 | 0.48 | 99 | 1009.3 |
| 20260509203743 | 12 | 1 | 0.0 | 0.0 | 0.00 | 0.46 | 0.46 | 99 | 1009.3 |